Date,TemperatureHighF,TemperatureAvgF,TemperatureLowF,DewpointHighF,DewpointAvgF,DewpointLowF,HumidityHigh,HumidityAvg,HumidityLow,PressureMaxIn,PressureMinIn,WindSpeedMaxMPH,WindSpeedAvgMPH,GustSpeedMaxMPH,PrecipitationSumIn
2013-1-1,45.9,42.0,38.6,38.4,32.3,27.3,90,69,53,29.97,29.87,6,0,6,0.02
2013-1-2,41.7,36.9,31.7,35.5,31.1,23.3,96,80,64,30.17,29.92,11,0,11,0.03
2013-1-3,38.4,31.8,24.6,27.5,23.0,19.0,92,71,55,30.20,30.10,6,0,6,0.00
2013-1-4,45.8,34.1,22.3,26.4,23.2,18.8,91,66,44,30.19,30.07,12,2,12,0.00
2013-1-5,47.7,35.3,22.5,29.3,24.5,19.2,91,66,43,30.32,30.13,6,0,6,0.00
2013-1-6,52.5,43.1,35.3,36.5,32.4,28.7,87,67,47,30.15,29.96,11,1,11,0.01
2013-1-7,46.5,38.1,27.0,33.5,29.5,24.0,91,72,54,30.39,30.08,15,1,15,0.00
2013-1-8,48.5,36.8,24.4,36.5,30.6,21.9,96,79,62,30.40,30.31,12,1,12,0.00
2013-1-9,60.5,46.1,27.5,50.9,40.5,25.8,99,82,69,30.33,30.19,14,2,14,0.00
2013-1-10,51.6,44.5,38.5,46.6,41.1,36.7,94,88,78,30.37,30.30,4,0,4,0.00
2013-1-11,43.8,40.7,31.3,43.5,39.4,29.0,99,95,84,30.38,30.04,9,1,9,0.09
2013-1-12,49.3,45.5,42.4,48.1,45.1,42.1,100,99,95,30.11,30.03,5,0,7,0.01
2013-1-13,67.9,55.9,46.4,62.3,54.8,46.4,100,96,81,30.06,29.92,12,1,12,0.01
2013-1-14,62.8,55.2,41.2,61.5,53.5,39.1,99,94,90,30.20,29.92,16,2,16,0.32
2013-1-15,41.2,38.7,36.9,39.5,38.1,36.2,99,98,93,30.26,30.06,13,1,14,1.10
2013-1-16,42.5,38.6,35.2,41.9,38.3,34.7,100,99,97,30.07,29.83,10,1,10,0.36
2013-1-17,43.6,38.3,31.5,43.5,38.0,31.2,100,99,94,30.08,29.91,7,0,7,0.68
2013-1-18,39.4,32.3,27.8,32.0,28.5,23.1,99,87,57,30.46,30.04,12,1,12,0.16
2013-1-19,51.9,39.2,28.4,33.7,28.6,23.7,86,67,43,30.41,29.98,16,3,17,0.10
2013-1-20,60.5,46.6,34.4,38.3,30.3,21.0,75,54,34,30.00,29.80,17,4,17,0.00
2013-1-21,51.8,38.2,24.6,30.5,24.4,11.9,92,61,33,30.03,29.72,16,2,16,0.00
2013-1-22,31.5,25.1,16.2,20.4,6.2,-0.1,74,45,29,30.25,29.86,16,2,16,0.00
2013-1-23,30.8,21.4,9.4,15.0,7.7,3.4,92,58,31,30.31,30.06,14,1,14,0.00
2013-1-24,27.7,21.6,13.2,19.3,12.7,4.3,91,71,39,30.50,29.98,21,3,21,0.00
2013-1-25,24.1,17.9,10.1,19.4,12.5,6.2,89,80,47,30.49,30.03,13,1,13,0.00
2013-1-26,37.7,29.1,21.0,27.4,23.4,18.5,93,80,60,30.38,30.02,7,0,7,0.01
2013-1-27,40.0,30.4,22.3,25.9,23.4,19.8,94,76,53,30.55,30.38,9,0,9,0.00
2013-1-28,51.9,40.4,29.4,45.6,35.2,24.3,97,82,68,30.44,30.04,17,3,17,0.18
2013-1-29,72.8,57.1,44.2,57.7,49.4,41.3,92,77,57,30.07,29.92,11,2,11,0.00
2013-1-30,69.5,65.8,61.0,63.3,60.4,54.5,94,83,76,29.92,29.16,25,6,25,0.13
2013-1-31,64.1,44.8,30.4,62.6,30.7,17.8,97,59,41,29.89,29.14,28,6,28,0.80
2013-2-1,33.4,29.0,17.4,26.3,13.3,6.0,81,53,35,30.35,29.72,26,4,26,0.00
2013-2-2,34.4,24.9,14.3,27.0,16.5,10.9,91,73,42,30.36,29.95,12,2,12,0.00
2013-2-3,40.3,31.6,23.3,31.5,25.4,19.4,95,79,56,29.95,29.77,14,1,14,0.01
2013-2-4,37.6,30.4,20.4,26.5,20.1,16.6,90,66,50,30.07,29.85,12,1,12,0.00
2013-2-5,56.4,44.9,36.0,37.3,31.4,24.6,76,59,47,29.85,29.75,14,3,14,0.00
2013-2-6,55.7,39.4,26.8,37.2,29.9,24.8,95,71,41,30.28,29.85,13,1,13,0.00
2013-2-7,41.3,34.2,25.5,33.1,27.6,22.5,92,77,59,30.37,30.09,4,0,4,0.01
2013-2-8,46.4,39.0,33.3,40.7,34.7,26.1,98,85,60,30.09,29.69,22,4,22,0.38
2013-2-9,48.8,36.5,24.5,26.4,22.3,18.5,83,58,34,30.33,29.88,18,3,18,0.00
2013-2-10,45.6,32.5,18.4,30.2,22.1,15.1,92,68,38,30.45,30.18,9,1,9,0.00
2013-2-11,55.8,46.2,37.1,53.6,43.8,29.3,100,92,65,30.18,29.71,18,3,18,0.10
2013-2-12,57.0,49.7,41.5,45.0,32.2,28.4,83,52,35,29.93,29.75,11,2,22,0.00
2013-2-13,44.2,39.3,34.5,39.3,35.4,31.0,97,86,70,29.86,29.57,15,1,15,0.09
2013-2-14,51.4,37.3,27.6,39.8,31.1,26.7,99,81,42,29.99,29.73,9,1,9,0.00
2013-2-15,61.7,44.9,28.4,38.6,33.5,25.8,95,68,33,30.00,29.82,16,2,16,0.00
2013-2-16,37.9,34.6,30.3,35.4,30.7,17.8,100,86,59,29.96,29.77,17,2,17,0.11
2013-2-17,32.9,27.7,22.3,18.4,11.6,6.2,71,51,35,30.18,29.80,20,4,20,0.00
2013-2-18,46.0,31.2,15.1,23.5,14.8,6.9,83,53,29,30.35,30.14,12,1,12,0.00
2013-2-19,45.7,39.9,35.5,43.8,33.4,21.8,97,79,49,30.14,29.70,14,3,14,0.15
2013-2-20,46.2,36.8,28.1,33.7,20.4,15.9,89,52,36,30.10,29.81,15,3,15,0.01
2013-2-24,55.9,49.9,39.6,42.7,38.9,28.9,99,69,41,29.88,29.78,10,2,10,0.00
2013-2-25,44.5,36.3,25.5,30.2,24.7,19.3,88,64,46,30.18,30.09,14,1,14,0.00
2013-2-26,48.2,36.5,25.4,47.7,34.8,22.0,99,93,86,30.16,29.50,12,1,12,0.53
2013-2-27,51.0,42.7,38.3,46.0,39.5,34.9,99,89,58,29.64,29.47,7,0,7,0.01
2013-2-28,48.9,41.7,36.7,36.8,31.2,27.0,91,67,44,29.70,29.56,17,2,17,0.00
2013-3-1,38.9,34.5,29.5,29.7,27.4,25.5,89,75,60,29.83,29.69,7,1,7,0.00
2013-3-2,37.7,34.6,29.8,26.2,24.2,22.4,81,66,59,29.84,29.77,13,2,14,0.00
2013-3-3,43.9,33.2,23.9,24.9,21.9,18.2,90,65,44,29.88,29.74,15,2,15,0.00
2013-3-4,48.4,34.1,18.6,24.5,19.1,15.5,89,58,32,30.00,29.87,15,2,15,0.00
2013-3-5,48.4,34.2,22.3,36.3,24.7,18.2,96,72,39,30.03,29.66,7,1,7,0.14
2013-3-6,32.9,32.0,31.5,32.3,31.4,31.0,98,97,96,29.66,29.40,19,3,19,0.18
2013-3-7,39.2,35.8,31.7,31.2,26.7,25.9,98,69,62,30.11,29.41,7,2,19,0.18
2013-3-8,46.4,39.8,33.2,32.3,28.5,25.8,75,64,54,30.20,30.08,29,6,29,0.00
2013-3-9,60.5,43.7,32.3,35.3,29.4,26.4,84,59,32,30.28,30.18,15,2,15,0.00
2013-3-10,63.9,43.2,26.5,33.3,27.7,23.1,94,63,23,30.27,30.14,8,1,10,0.00
2013-3-11,63.0,53.3,40.9,51.0,46.8,39.8,97,80,63,30.13,29.85,14,3,14,0.00
2013-3-12,64.5,59.3,55.4,62.0,55.2,49.6,99,87,73,29.87,29.64,14,4,14,0.38
2013-3-13,45.7,34.0,29.2,31.2,28.1,22.9,95,82,44,29.95,29.90,17,1,17,0.00
2013-3-14,32.0,31.7,31.5,19.8,19.5,19.3,61,60,59,30.03,30.03,6,1,6,0.00
2013-3-15,57.7,47.0,25.2,36.3,30.3,18.8,87,54,39,30.05,29.75,17,3,17,0.00
2013-3-16,67.8,50.4,41.5,54.8,43.8,33.5,97,79,56,29.80,29.52,20,1,20,0.30
2013-3-17,43.6,36.9,33.2,40.1,35.3,32.2,97,94,87,30.22,29.80,6,0,7,0.23
2013-3-18,34.1,32.5,31.5,33.5,31.9,30.8,98,97,96,30.24,29.83,6,0,6,0.34
2013-3-19,62.9,44.0,32.4,43.7,30.5,11.7,99,69,21,29.90,29.65,27,3,27,0.18
2013-3-20,55.6,44.6,27.7,31.3,18.8,11.3,72,38,23,29.97,29.68,20,3,20,0.00
2013-3-21,46.0,35.6,27.9,27.2,19.2,11.6,80,52,36,29.88,29.66,25,4,25,0.00
2013-3-22,49.3,35.5,23.4,27.5,17.6,11.5,75,49,32,29.96,29.84,17,3,17,0.00
2013-3-23,56.4,35.0,22.8,29.6,23.6,19.2,91,67,29,30.00,29.85,12,1,12,0.00
2013-3-24,40.3,34.4,29.6,32.1,27.1,23.3,93,75,60,29.92,29.64,5,0,5,0.01
2013-3-25,36.7,33.1,31.0,35.1,32.0,29.6,97,96,94,29.66,29.47,2,0,3,0.48
2013-3-26,47.5,37.5,29.7,36.4,30.5,26.8,100,78,48,29.97,29.65,13,2,17,0.01
2013-3-27,51.3,39.9,29.1,31.7,27.1,23.6,90,63,41,30.10,29.97,17,3,18,0.00
2013-3-28,51.7,38.8,30.7,30.7,26.5,23.8,76,62,42,30.18,30.07,19,3,19,0.00
2013-3-29,51.7,41.8,33.9,37.4,33.0,27.9,83,71,51,30.21,30.10,0,0,0,0.00
2013-3-30,63.4,47.4,29.8,40.0,32.4,27.5,96,61,30,30.17,30.02,13,1,13,0.00
2013-3-31,49.4,46.2,43.9,48.8,39.4,33.3,98,78,61,30.03,29.75,11,1,11,0.06
2013-4-1,70.0,56.2,37.1,46.8,40.1,27.1,100,57,41,29.91,29.67,20,5,20,0.00
2013-4-2,55.4,42.8,27.0,28.3,22.2,15.4,88,48,23,30.11,29.91,19,3,19,0.00
2013-4-3,53.6,33.1,23.3,25.7,20.1,16.4,92,63,26,30.31,30.10,12,1,20,0.00
2013-4-4,50.2,34.6,25.0,34.6,22.6,16.6,96,64,32,30.37,29.99,6,0,7,0.54
2013-4-5,65.3,48.2,35.1,43.4,36.6,30.6,98,70,30,29.99,29.77,18,2,18,0.47
2013-4-6,60.7,49.4,37.8,35.2,27.9,22.7,67,45,28,30.25,29.96,14,2,14,0.00
2013-4-7,70.5,57.0,33.5,44.9,39.6,30.0,90,55,38,30.23,29.95,21,4,21,0.00
2013-4-8,81.7,70.3,53.3,53.7,50.7,43.8,75,51,35,30.02,29.89,17,4,17,0.00
2013-4-9,86.8,78.0,60.9,58.6,55.8,53.0,76,48,35,30.03,29.89,17,3,17,0.00
2013-4-10,90.3,80.6,65.7,61.1,58.6,55.6,74,49,33,29.93,29.74,15,4,15,0.00
2013-4-11,75.7,73.9,71.9,59.3,59.0,58.7,64,60,56,29.78,29.76,11,4,11,0.00
2013-4-12,81.5,71.8,63.5,69.0,61.6,45.8,98,73,45,29.62,29.47,17,3,17,0.37
2013-4-13,72.5,60.8,43.8,55.9,43.6,40.6,95,57,33,29.87,29.61,13,2,13,0.00
2013-4-14,75.6,63.4,40.1,46.6,43.4,38.5,96,51,32,30.04,29.87,11,1,11,0.00
2013-4-15,65.0,56.4,50.6,55.5,50.1,41.1,96,80,54,30.20,30.01,9,0,9,0.04
2013-4-16,75.5,66.8,48.6,60.9,57.5,47.2,98,74,57,30.23,30.09,13,2,13,0.00
2013-4-17,82.8,71.6,59.5,64.0,61.0,56.4,90,71,51,30.11,30.03,7,1,7,0.00
2013-4-18,75.6,63.2,57.8,60.8,58.1,56.1,96,84,57,30.10,29.93,7,0,10,0.00
2013-4-19,80.5,70.3,63.3,68.7,63.5,59.2,92,80,63,29.93,29.55,24,4,24,0.25
2013-4-20,65.2,55.1,42.8,42.4,36.4,31.3,83,52,31,30.25,29.86,13,2,13,0.01
2013-4-21,59.6,50.5,38.3,36.0,32.0,28.6,79,50,36,30.51,30.42,13,1,13,0.00
2013-4-22,59.6,45.4,30.3,42.4,36.8,28.3,96,73,49,30.49,30.29,14,1,14,0.00
2013-4-23,62.9,52.1,44.4,49.7,45.0,41.3,92,78,60,30.30,30.06,11,1,11,0.00
2013-4-24,77.7,63.9,40.5,57.8,52.5,38.3,99,69,46,30.06,29.78,18,4,18,0.00
2013-4-25,70.7,56.5,45.8,56.2,39.0,34.6,80,54,31,30.21,29.86,14,1,14,0.00
2013-4-26,72.7,54.2,35.3,46.3,40.2,32.9,97,64,30,30.39,30.21,13,1,13,0.00
2013-4-27,59.2,48.3,43.5,46.2,42.7,40.6,93,82,54,30.34,30.30,4,0,4,0.00
2013-4-28,63.1,58.6,47.1,50.5,46.5,40.9,93,65,49,30.20,30.07,5,0,5,0.00
2013-4-29,61.3,56.0,51.5,60.2,55.6,50.4,100,99,93,30.09,29.93,5,0,5,0.68
2013-4-30,61.3,56.4,54.0,59.4,55.5,53.7,100,97,90,30.18,29.99,11,0,11,0.03
2013-5-1,71.8,59.2,51.8,54.5,50.0,44.4,99,74,47,30.32,30.17,11,1,11,0.00
2013-5-2,67.5,55.2,47.4,53.6,49.4,45.1,95,82,57,30.35,30.24,9,0,9,0.00
2013-5-3,69.5,53.6,40.6,54.2,45.1,39.3,99,76,43,30.27,30.19,10,0,10,0.00
2013-5-4,66.0,51.1,38.9,52.8,44.6,37.3,98,79,58,30.24,30.09,12,0,12,0.00
2013-5-5,65.3,52.4,39.0,52.0,45.3,36.3,92,78,57,30.14,30.04,12,1,12,0.00
2013-5-6,64.1,56.5,51.4,60.9,54.8,49.3,99,94,86,30.08,29.88,9,0,9,0.06
2013-5-7,69.5,60.1,55.2,65.7,59.3,55.1,100,97,85,29.92,29.76,7,0,7,1.78
2013-5-8,68.2,57.5,52.8,61.7,56.2,51.9,100,96,74,29.93,29.86,5,0,5,0.14
2013-5-9,79.3,62.8,51.6,64.5,57.2,51.0,100,84,53,29.95,29.87,8,0,8,0.01
2013-5-10,76.7,62.2,53.9,63.2,57.8,52.8,100,87,63,29.94,29.82,4,0,4,0.00
2013-5-11,78.7,69.7,61.4,67.0,63.4,60.0,99,81,61,29.85,29.65,10,1,10,0.40
2013-5-12,73.0,63.0,45.2,60.2,46.9,35.3,99,60,32,29.97,29.66,13,1,13,0.02
2013-5-13,65.1,49.7,36.2,41.2,36.2,31.1,98,64,34,30.11,29.97,6,1,13,0.00
2013-5-14,70.5,52.4,32.5,49.6,39.1,30.4,98,65,33,30.17,29.97,8,0,8,0.00
2013-5-15,86.7,72.9,54.8,65.8,57.8,42.8,77,60,48,29.98,29.67,10,2,12,0.00
2013-5-16,74.9,66.6,63.0,64.3,63.3,62.1,98,90,68,29.87,29.72,2,0,3,0.32
2013-5-17,85.6,66.1,57.4,64.4,60.1,54.7,100,84,42,30.03,29.84,5,0,5,0.00
2013-5-18,62.4,61.3,60.9,62.1,61.1,60.6,100,100,99,30.11,30.08,2,0,2,0.45
2013-5-19,73.8,65.9,60.7,69.6,64.3,60.7,100,95,84,30.11,30.00,4,0,4,0.01
2013-5-20,83.4,70.3,61.3,73.0,67.1,61.0,100,90,67,30.04,29.92,4,0,6,0.01
2013-5-21,82.4,71.3,65.9,72.5,68.3,65.3,99,91,71,29.94,29.82,4,0,4,0.00
2013-5-22,86.3,75.5,67.9,74.9,70.2,67.3,100,85,67,29.89,29.77,7,1,7,0.00
2013-5-23,82.5,72.7,67.3,71.7,68.1,63.5,99,86,66,29.85,29.69,0,0,0,0.03
2013-5-24,67.5,58.7,46.0,63.5,51.4,37.8,98,78,52,30.10,29.69,15,1,17,0.07
2013-5-25,70.7,53.8,39.9,46.8,38.6,34.2,83,59,30,30.18,30.03,16,1,16,0.00
2013-5-26,77.2,58.0,39.0,50.9,42.5,37.2,98,63,27,30.18,30.07,10,0,10,0.00
2013-5-27,75.0,59.1,41.5,59.2,50.0,39.3,97,75,42,30.21,30.10,1,0,1,0.05
2013-5-28,85.4,69.3,51.7,70.7,62.2,50.6,100,80,58,30.12,30.00,0,0,0,0.01
2013-5-29,91.3,77.3,66.3,73.5,67.0,63.3,91,72,50,30.08,30.01,0,0,0,0.00
2013-5-30,92.9,76.8,63.0,72.9,67.0,61.2,96,74,44,30.13,30.05,0,0,0,0.00
2013-5-31,90.0,75.9,61.6,72.4,65.7,59.9,97,73,46,30.10,29.97,0,0,0,0.00
2013-6-1,90.6,77.8,66.0,73.6,67.8,62.1,92,73,54,29.99,29.87,0,0,0,0.00
2013-6-2,84.7,74.7,66.8,73.2,68.4,64.9,99,81,64,29.88,29.79,0,0,0,0.34
2013-6-3,84.4,71.9,66.4,72.8,68.5,66.1,100,90,61,29.88,29.73,0,0,0,0.41
2013-6-4,83.0,67.7,54.8,66.7,53.9,44.0,98,66,31,30.07,29.87,0,0,0,0.00
2013-6-5,82.8,70.9,54.2,63.8,59.0,51.3,100,68,47,30.10,29.97,0,0,0,0.00
2013-6-6,75.0,66.3,57.1,68.1,61.8,53.7,97,86,76,30.00,29.74,0,0,0,0.00
2013-6-7,69.6,67.9,65.4,69.6,67.9,65.4,100,100,97,29.74,29.48,0,0,0,1.40
2013-6-8,82.9,69.6,63.8,73.0,66.6,62.3,100,91,64,30.01,29.68,0,0,0,0.18
2013-6-9,86.0,69.8,58.6,74.1,66.3,58.1,100,90,62,30.09,29.98,0,0,0,0.90
2013-6-10,80.5,72.0,67.2,75.4,70.4,66.3,100,95,81,30.01,29.74,0,0,0,0.85
2013-6-11,88.3,75.0,66.7,72.7,68.2,63.5,100,82,53,29.81,29.73,0,0,0,0.00
2013-6-12,93.7,77.4,63.4,76.6,69.8,62.0,98,80,53,29.82,29.72,0,0,0,0.00
2013-6-13,74.5,70.4,63.9,73.3,69.3,62.0,99,96,92,29.72,29.51,2,0,2,0.90
2013-6-14,79.0,67.5,58.5,63.5,58.3,54.9,96,74,49,29.92,29.56,15,1,15,0.01
2013-6-15,76.8,59.3,54.8,63.8,57.1,53.6,100,93,57,30.02,29.91,6,0,6,0.00
2013-6-16,81.8,78.4,74.7,71.5,71.0,70.6,88,78,71,29.88,29.84,3,0,3,0.00
2013-6-17,90.0,75.6,68.7,74.9,70.4,66.7,96,85,57,29.91,29.80,6,0,6,0.01
2013-6-18,75.6,71.8,66.9,72.8,69.9,65.2,100,94,89,29.86,29.67,3,0,3,0.42
2013-6-19,75.5,69.8,62.7,69.1,65.6,61.9,100,87,76,30.07,29.86,6,0,6,0.01
2013-6-20,82.7,69.3,61.1,67.4,61.7,55.4,100,79,53,30.19,30.07,5,0,5,0.00
2013-6-21,86.3,69.1,53.0,67.1,59.6,51.6,99,75,36,30.23,30.15,7,0,7,0.00
2013-6-22,87.1,77.2,64.9,74.3,70.2,62.5,97,80,60,30.18,30.08,9,0,9,0.01
2013-6-23,89.2,76.2,67.6,76.2,71.5,67.2,100,87,63,30.11,30.01,5,0,5,0.52
2013-6-24,91.2,77.3,69.7,77.6,72.0,68.1,98,85,58,30.07,29.96,10,0,11,0.00
2013-6-25,95.5,79.6,67.2,78.9,72.2,66.3,100,81,52,29.99,29.84,4,0,4,0.00
2013-6-26,93.7,76.9,67.7,79.7,71.6,66.7,98,85,50,29.86,29.76,13,0,13,0.14
2013-6-27,83.3,72.9,66.2,75.0,70.1,66.0,100,92,71,29.78,29.57,9,0,9,0.05
2013-6-28,91.2,78.5,69.3,77.2,71.8,67.7,96,81,58,29.59,29.40,9,0,9,0.03
2013-6-29,91.8,78.2,68.3,73.8,69.7,66.4,96,77,47,29.63,29.45,6,0,6,0.00
2013-6-30,85.7,75.3,68.0,77.4,72.2,67.5,100,91,72,29.78,29.62,10,0,10,0.28
2013-7-1,68.2,67.9,67.7,68.2,67.8,67.5,100,100,99,29.79,29.77,0,0,0,0.11
2013-7-6,77.6,76.0,75.5,73.1,72.1,71.8,89,88,86,30.07,30.04,0,0,0,0.00
2013-7-7,89.0,79.1,73.0,77.4,73.6,71.5,95,84,65,30.06,29.95,7,1,7,0.00
2013-7-8,88.5,79.5,69.4,77.1,72.4,68.8,99,80,60,30.05,29.95,4,0,4,0.01
2013-7-9,90.0,78.6,69.6,78.6,73.7,68.6,100,86,62,30.04,29.94,4,0,4,0.00
2013-7-10,91.6,77.6,70.8,80.3,73.8,70.4,99,89,67,29.96,29.81,8,0,8,0.71
2013-7-11,70.8,70.5,69.9,70.8,70.5,69.9,100,100,99,29.85,29.79,3,0,3,0.00
2013-7-13,83.8,75.0,63.9,77.4,72.0,63.7,100,91,76,30.10,29.98,5,0,5,0.05
2013-7-14,83.4,76.7,72.9,75.3,73.4,71.1,95,90,76,30.23,30.19,0,0,0,1.13
2013-7-15,94.8,80.0,67.1,80.8,73.5,66.5,100,83,53,30.24,30.13,4,0,5,0.00
2013-7-16,95.7,81.2,70.6,82.3,75.5,69.6,100,84,59,30.16,30.07,11,0,11,0.00
2013-7-17,96.5,80.4,70.9,81.9,76.2,70.2,100,88,56,30.13,30.02,5,0,5,0.00
2013-7-18,98.7,83.1,71.5,83.4,76.9,70.9,100,84,56,30.06,29.93,5,0,5,0.00
2013-7-19,96.7,83.1,72.3,80.6,76.2,71.3,100,81,54,29.95,29.82,6,0,6,0.00
2013-7-20,93.4,81.0,72.3,80.3,75.1,70.2,95,83,63,29.85,29.75,6,0,6,0.00
2013-7-21,92.4,77.5,70.8,81.0,73.8,70.3,99,89,62,29.88,29.79,14,0,14,0.04
2013-7-22,88.8,77.1,68.9,78.1,73.4,68.9,100,89,69,29.86,29.70,3,0,3,0.00
2013-7-23,92.8,80.3,72.2,77.3,74.0,71.3,98,83,55,29.70,29.58,5,0,5,0.00
2013-7-24,87.5,76.2,68.0,74.8,70.4,63.8,99,83,64,29.82,29.59,10,1,10,0.00
2013-7-25,80.7,71.5,61.8,67.3,61.9,57.1,91,72,54,29.96,29.79,14,1,14,0.00
2013-7-26,86.8,69.8,56.4,71.2,62.8,55.6,100,81,49,30.03,29.94,6,0,6,0.00
2013-7-27,82.9,71.4,61.1,73.0,67.6,60.0,100,89,68,29.98,29.85,5,0,5,0.05
2013-7-28,88.4,73.4,67.6,76.1,70.0,67.0,100,90,57,29.90,29.80,14,0,14,0.10
2013-7-29,83.6,68.1,62.9,68.2,64.6,61.0,100,90,52,30.09,29.89,4,0,6,0.00
2013-7-30,82.7,63.6,56.6,66.9,60.0,55.2,100,89,56,30.16,30.08,6,0,6,0.00
2013-7-31,82.0,73.0,60.7,73.4,68.3,59.8,99,86,66,30.08,29.98,5,0,5,0.00
2013-8-1,86.1,71.6,64.7,76.7,69.6,64.3,100,94,68,29.85,29.74,14,0,14,0.79
2013-8-2,90.0,73.5,61.6,73.1,66.4,61.4,100,82,45,29.91,29.79,4,0,4,0.00
2013-8-3,83.5,77.1,67.0,72.7,70.5,64.9,97,81,61,29.90,29.83,5,0,5,0.00
2013-8-4,84.2,70.8,61.1,68.6,64.1,58.8,98,82,48,29.97,29.83,11,1,16,0.00
2013-8-5,61.1,57.4,55.1,59.0,56.2,54.1,99,96,92,30.03,29.96,4,0,4,0.00
2013-8-6,72.2,66.9,60.7,70.3,66.4,59.0,100,98,92,30.02,29.93,3,0,4,0.45
2013-8-7,83.0,69.7,66.3,74.3,68.5,66.3,100,96,73,30.00,29.97,6,0,7,0.01
2013-8-8,85.5,78.6,71.8,78.8,74.4,70.6,97,87,71,29.97,29.90,4,0,4,0.08
2013-8-9,91.5,83.5,73.5,79.6,76.1,72.3,97,79,64,29.91,29.80,10,1,10,0.00
2013-8-10,83.4,73.5,68.6,76.0,71.5,67.4,100,94,74,30.02,29.89,11,0,11,0.67
2013-8-11,79.1,72.8,68.3,74.8,71.1,68.3,100,95,82,30.04,29.96,2,0,4,0.04
2013-8-12,90.0,83.3,72.5,76.9,75.1,72.5,100,77,58,29.93,29.85,6,0,6,0.00
2013-8-13,89.6,78.2,70.9,77.2,73.5,69.0,98,86,63,29.76,29.67,1,0,1,0.04
2013-8-14,77.2,67.3,56.1,70.6,58.1,51.2,99,74,47,30.04,29.73,16,1,16,0.01
2013-8-15,56.1,54.5,53.0,54.1,52.8,51.6,95,94,93,30.05,30.03,0,0,0,0.00
2013-8-16,63.8,59.3,57.8,60.2,57.1,55.8,94,92,88,30.14,30.09,0,0,0,0.00
2013-8-17,77.5,66.0,54.9,68.0,61.7,54.1,100,87,63,30.17,30.10,9,0,9,0.02
2013-8-18,66.2,63.7,62.0,65.3,63.1,61.7,100,98,95,30.14,30.10,6,0,7,1.09
2013-8-19,70.3,64.8,61.7,68.5,64.4,61.6,100,99,93,30.13,30.02,0,0,0,0.08
2013-8-20,85.3,73.7,64.5,76.8,70.4,64.5,100,90,68,30.10,30.02,0,0,0,0.00
2013-8-21,88.8,74.5,64.6,77.2,71.2,64.3,100,90,64,30.13,30.00,0,0,0,0.02
2013-8-22,93.5,78.4,70.1,77.8,72.2,68.3,100,84,52,30.03,29.88,0,0,0,0.00
2013-8-23,75.5,67.9,64.1,71.4,66.9,64.1,100,97,85,30.04,29.85,11,0,11,0.44
2013-8-24,78.3,61.3,55.8,69.2,60.2,55.5,100,97,69,30.19,30.04,9,0,9,0.00
2013-8-26,87.2,75.4,55.6,70.2,65.9,55.0,99,74,51,30.20,29.97,4,0,4,0.00
2013-8-27,91.2,74.0,63.6,77.0,68.9,61.0,99,85,59,29.97,29.83,10,0,10,0.26
2013-8-28,77.0,71.5,68.8,74.0,71.1,68.7,100,99,87,29.88,29.74,0,0,0,0.62
2013-8-29,74.7,70.9,68.2,72.0,70.5,67.3,100,99,91,29.95,29.73,14,0,14,0.01
2013-8-30,85.9,72.9,63.5,75.0,68.6,63.2,100,88,63,29.99,29.84,4,0,4,0.00
2013-8-31,87.5,74.8,67.0,77.2,71.0,66.1,99,89,70,29.86,29.73,7,0,7,0.03
2013-9-1,82.5,69.6,67.2,75.0,68.9,67.2,100,98,76,29.79,29.73,3,0,3,0.00
2013-9-2,90.1,83.0,71.1,77.9,74.8,70.9,100,78,62,29.75,29.67,5,0,5,0.02
2013-9-3,87.3,75.5,66.4,73.4,69.5,64.2,100,83,57,29.88,29.66,11,0,11,0.00
2013-9-4,75.8,64.4,60.0,64.5,60.6,57.7,95,88,62,30.02,29.88,9,0,9,0.00
2013-9-6,61.2,58.2,56.6,57.9,55.6,54.3,92,91,89,30.08,30.07,0,0,0,0.00
2013-9-7,78.2,64.5,52.0,66.8,59.6,50.9,100,85,64,30.07,29.87,5,0,5,0.00
2013-9-8,90.7,72.2,58.6,72.8,65.8,57.5,100,83,51,29.93,29.80,6,0,6,0.00
2013-9-9,77.0,70.8,64.1,70.4,66.0,57.6,97,85,71,30.11,29.93,6,0,6,0.00
2013-9-10,90.8,76.0,66.6,77.5,71.7,66.0,100,88,63,30.12,30.03,3,0,3,0.00
2013-9-11,91.8,77.3,66.8,78.6,71.5,65.9,100,84,57,30.08,29.94,5,0,5,0.00
2013-9-12,72.6,69.9,68.6,68.9,68.3,67.4,99,95,88,29.94,29.68,2,0,11,0.24
2013-9-13,81.1,70.0,61.0,68.4,62.3,52.8,100,79,51,29.85,29.63,12,1,12,0.00
2013-9-14,60.8,54.9,50.1,55.3,50.0,46.8,92,84,74,30.09,29.85,14,1,14,0.00
2013-9-15,77.7,59.7,43.9,62.5,53.1,42.6,100,81,53,30.18,30.03,5,0,5,0.00
2013-9-16,70.4,62.6,57.4,65.3,59.8,55.2,98,90,82,30.05,30.00,10,0,10,0.00
2013-9-17,54.3,49.0,46.3,50.2,46.4,44.0,92,91,86,30.28,30.25,0,0,0,0.00
2013-9-18,72.8,54.9,39.2,57.4,47.7,37.7,100,80,43,30.27,30.12,6,0,6,0.00
2013-9-19,76.7,59.9,45.7,63.4,54.6,44.5,100,84,58,30.13,30.02,1,0,1,0.00
2013-9-20,77.5,60.6,51.9,66.7,57.9,51.1,100,92,66,30.03,29.90,4,0,4,0.00
2013-9-21,70.6,63.4,55.0,67.1,61.6,54.2,100,94,79,29.90,29.63,10,0,10,0.88
2013-9-22,74.5,62.8,54.8,61.9,58.1,52.5,100,86,57,29.87,29.66,9,1,12,0.02
2013-9-23,68.3,56.2,47.3,53.2,49.6,45.2,97,80,53,30.03,29.87,10,0,12,0.00
2013-9-24,74.3,56.3,42.9,57.9,49.9,41.8,100,82,53,30.05,29.89,7,0,7,0.00
2013-9-25,77.0,58.8,44.2,61.4,53.4,42.9,100,84,51,29.91,29.81,6,0,6,0.00
2013-9-26,77.2,63.5,51.8,61.9,56.7,50.6,100,81,50,29.93,29.83,9,0,9,0.00
2013-9-27,70.2,63.0,52.3,62.0,58.1,50.6,100,85,69,30.16,30.08,6,0,6,0.00
2013-9-28,67.3,57.9,48.3,59.8,54.5,47.2,100,89,68,30.22,30.13,10,0,10,0.00
2013-9-29,74.0,58.8,45.9,61.5,54.5,45.1,100,87,61,30.13,29.98,5,0,7,0.00
2013-9-30,76.3,58.4,45.8,62.2,53.2,44.8,100,85,54,30.04,29.92,5,0,5,0.00
2013-10-1,66.2,54.9,50.3,63.2,53.7,49.5,100,96,90,30.02,29.95,1,0,2,0.00
2013-10-2,83.7,65.9,52.0,67.2,59.5,51.0,100,82,50,30.03,29.95,4,0,4,0.00
2013-10-3,81.8,66.6,54.0,69.4,61.9,53.0,100,86,60,30.05,29.97,3,0,3,0.00
2013-10-4,87.7,69.7,58.4,72.2,64.5,57.3,100,85,56,30.02,29.94,9,0,9,0.00
2013-10-5,89.3,71.0,58.1,72.8,65.4,57.3,100,84,53,30.02,29.93,5,0,5,0.00
2013-10-6,84.5,70.7,59.7,70.1,64.7,58.8,100,83,57,29.97,29.85,5,0,9,0.00
2013-10-7,73.4,67.2,55.4,70.8,65.7,52.1,100,95,88,29.99,29.74,12,0,12,0.56
2013-10-8,62.9,54.4,48.5,53.8,50.3,46.3,97,87,63,30.20,29.99,15,0,15,0.00
2013-10-9,56.4,53.2,50.7,54.4,51.6,48.9,99,95,88,30.20,30.08,16,2,16,0.62
2013-10-10,56.1,53.6,51.4,55.4,53.2,51.0,100,99,97,30.08,29.87,15,3,15,0.47
2013-10-11,56.0,55.9,55.7,55.6,55.4,55.2,99,98,98,29.87,29.84,14,2,14,0.02
2013-10-12,62.2,60.9,59.1,62.2,60.9,58.9,100,100,99,30.06,29.88,12,1,12,0.15
2013-10-13,60.9,59.9,59.1,60.8,59.9,59.1,100,100,100,30.14,30.04,11,1,11,0.08